Location: Newark
(58.9986°N, 38.5006°E)
Time: 17:12:23
(UTC+00:00)

N. Korean satellite - Pass Details

Date: 17 December 2019
Orbit: 454 x 508 km, 97.2° (Epoch: 20 January)

Event Time Altitude Azimuth Distance (km) Brightness Sun altitude
Rises 03:30:47 0° 16° (NNE) 2,547 10.2 -18.7°
Reaches altitude 10° 03:32:53 10° 18° (NNE) 1,654 9.3 -18.5°
Maximum altitude 03:36:25 72° 103° (ESE) 498 6.7 -18.0°
Drops below altitude 10° 03:39:53 10° 189° (S) 1,614 9.3 -17.6°
Sets 03:41:54 0° 192° (SSW) 2,478 10.2 -17.3°
